Regional Weather Roundup
Issued by NWS Northern Indiana

Home | Current Version | Previous Version | Text Only | Print | Product List | Glossary Off
Versions: 1 2 3 4 5 6 7 8 9 10 11 12 13 14 15 16 17 18 19 20 21 22 23 24 25 26 27 28 29 30 31 32 33 34 35 36 37 38 39 40 41 42 43 44 45 46 47 48 49 50

000
ASUS43 KIWX 271810
RWRIWX

KIWX WEATHER ROUNDUP
NATIONAL WEATHER SERVICE NORTHERN INDIANA
200 PM EDT THU AUG 27 2015

NOTE: "FAIR" INDICATES FEW OR NO CLOUDS BELOW 12,000 FEET WITH NO
SIGNIFICANT WEATHER AND/OR OBSTRUCTIONS TO VISIBILITY.

* THESE STATIONS ARE NOT UNDER NWS QUALITY CONTROL. THEY ALSO MAY NOT
  REPORT WEATHER SUCH AS PRECIPITATION OR FOG.

INZ001>027-271900-
NORTHERN INDIANA

CITY           SKY/WX    TMP DP  RH WIND       PRES   REMARKS
GARY*          CLOUDY    68  52  56 CALM      30.20S
VALPARAISO     CLOUDY    70  56  61 VRB5      30.20S
6HR MIN TEMP:  60; 6HR MAX TEMP:  70;

SOUTH BEND     CLOUDY    68  53  58 E6        30.19S
6HR MIN TEMP:  50; 6HR MAX TEMP:  68;

ELKHART*       PTSUNNY   68  54  60 E7        30.19F
GOSHEN         CLOUDY    67  55  65 VRB5      30.18F
6HR MIN TEMP:  50; 6HR MAX TEMP:  68;

ANGOLA*        CLOUDY    68  54  60 CALM      30.18F
FORT WAYNE     PTSUNNY   70  56  61 CALM      30.18F
6HR MIN TEMP:  53; 6HR MAX TEMP:  70;

PERU/GRISSOM   PTSUNNY   72  57  58 VRB3      30.16S
6HR MIN TEMP:  56; 6HR MAX TEMP:  72;


$$
INZ028>050-271900-
CENTRAL INDIANA

CITY           SKY/WX    TMP DP  RH WIND       PRES   REMARKS
LAFAYETTE      PTSUNNY   73  55  53 VRB3      30.15F
6HR MIN TEMP:  52; 6HR MAX TEMP:  75;

KOKOMO*        PTSUNNY   72  55  56 S3        30.16F
6HR MIN TEMP:  54; 6HR MAX TEMP:  72;

MUNCIE*        PTSUNNY   72  57  59 NE7       30.16F
6HR MIN TEMP:  56; 6HR MAX TEMP:  72;

INDIANAPOLIS   MOSUNNY   76  56  49 SE7       30.13F
6HR MIN TEMP:  59; 6HR MAX TEMP:  76;


$$
MIZ043>046-050>051-056>058-064>065-071>073-077>080-271900-
SOUTHWEST LOWER MICHIGAN

CITY           SKY/WX    TMP DP  RH WIND       PRES   REMARKS
BATTLE CREEK   PTSUNNY   66  53  63 E6        30.20F
6HR MIN TEMP:  51; 6HR MAX TEMP:  68;

BENTON HARBOR  MOSUNNY   69  54  58 E6        30.18F
6HR MIN TEMP:  53; 6HR MAX TEMP:  70;

COLDWATER*     CLOUDY    65  52  63 CALM      30.18F
6HR MIN TEMP:  51; 6HR MAX TEMP:  67;

HILLSDALE*     CLOUDY    66  54  65 CALM      30.19F
HOLLAND        CLOUDY    70  55  59 CALM      30.18F
6HR MIN TEMP:  56; 6HR MAX TEMP:  71;

GRAND RAPIDS   PTSUNNY   69  54  58 E3        30.18F
6HR MIN TEMP:  56; 6HR MAX TEMP:  70;

KALAMAZOO      PTSUNNY   68  54  60 VRB3      30.20F
6HR MIN TEMP:  50; 6HR MAX TEMP:  69;

STURGIS*       CLOUDY    66  55  68 CALM      30.18F
THREE RIVERS*  PTSUNNY   67  55  63 SE3       30.19F
6HR MIN TEMP:  50; 6HR MAX TEMP:  68;


$$
OHZ001>008-015>018-024>025-271900-
NORTHWEST OHIO

CITY           SKY/WX    TMP DP  RH WIND       PRES   REMARKS
WAUSEON*       CLOUDY    70  55  60 NE7       30.18F
DEFIANCE       CLOUDY    71  54  54 CALM      30.18F
6HR MIN TEMP:  51; 6HR MAX TEMP:  71;

FINDLAY        CLOUDY    71  55  56 NE6       30.17F
6HR MIN TEMP:  60; 6HR MAX TEMP:  72;

TOLEDO EXPRESS PTSUNNY   70  54  56 NE9       30.17F
6HR MIN TEMP:  56; 6HR MAX TEMP:  73;

TOLEDO METCALF CLOUDY    71  52  50 E7        30.19F
6HR MIN TEMP:  59; 6HR MAX TEMP:  73;

LIMA           PTSUNNY   70  53  54 VRB5      30.17F
6HR MIN TEMP:  56; 6HR MAX TEMP:  71;


$$
AND FOR LAKE MICHIGAN COASTAL AND OPEN LAKE BUOY OBSERVATIONS

STATION/POSITION TEMP    WIND        PRES    VSBY  WAVE
                 AIR SEA DIR/SP/G                  HT/PER
                 (F)     (DEG/KT/KT) (MB)    (MI)  (FT/S)
CALUMET HARBOR    65      60/  2/  4   N/A
MICHIGAN CITY     65      60/  7/  9   N/A
BURNS HARBOR      66     280/  2/  6 1022.7F
SAINT JOSEPH      70     160/  2/  8 1022.4S
SOUTH LAKE BUOY   64 67  180/  8/ 10 1022.2F
4 MI NW BRIDGMAN  66 71  200/  4/  6   N/A           1
MICHIGAN CITY     66 71  360/  2/  2   N/A           1

$$
&&


USA.gov is the U.S. government's official web portal to all federal, state and local government web resources and services.